| time (UTC) | temp F | wind direction | speed MPH | gust MPH | rain 1hr in | rain 24hr in | rain mn in | humidity % | barometer mb |
| 20260502230903 | 55 | 0 | 0.0 | 0.0 | 0.00 | 0.00 | 0.00 | 1 | 1014.0 |
| 20260502230218 | 55 | 0 | 0.0 | 0.0 | 0.00 | 0.00 | 0.00 | 1 | 1013.8 |
| 20260502225403 | 55 | 0 | 0.0 | 0.0 | 0.00 | 0.00 | 0.00 | 1 | 1013.8 |
| 20260502224717 | 55 | 96 | 0.0 | 1.0 | 0.00 | 0.00 | 0.00 | 1 | 1013.9 |
| 20260502223603 | 55 | 106 | 1.0 | 4.0 | 0.00 | 0.00 | 0.00 | 1 | 1014.0 |
| 20260502222703 | 55 | 134 | 2.0 | 9.0 | 0.00 | 0.00 | 0.00 | 1 | 1014.0 |
| 20260502221803 | 55 | 0 | 0.0 | 0.0 | 0.00 | 0.00 | 0.00 | 1 | 1013.7 |
| 20260502220903 | 55 | 0 | 0.0 | 0.0 | 0.00 | 0.00 | 0.00 | 1 | 1013.6 |
| 20260502220006 | 55 | 31 | 0.0 | 3.0 | 0.00 | 0.00 | 0.00 | 1 | 1013.7 |
| 20260502215403 | 55 | 18 | 1.0 | 5.0 | 0.00 | 0.00 | 0.00 | 1 | 1013.6 |
| 20260502214503 | 55 | 22 | 2.0 | 8.0 | 0.00 | 0.00 | 0.00 | 1 | 1013.6 |
| 20260502213603 | 56 | 17 | 2.0 | 5.0 | 0.00 | 0.00 | 0.00 | 1 | 1013.8 |
| 20260502212703 | 56 | 13 | 2.0 | 4.0 | 0.00 | 0.00 | 0.00 | 1 | 1014.0 |
| 20260502212017 | 56 | 9 | 2.0 | 5.0 | 0.00 | 0.00 | 0.00 | 1 | 1013.9 |
| 20260502210903 | 57 | 11 | 2.0 | 5.0 | 0.00 | 0.00 | 0.00 | 1 | 1014.0 |
| 20260502210004 | 57 | 356 | 2.0 | 4.0 | 0.00 | 0.00 | 0.00 | 1 | 1014.1 |
| 20260502205403 | 57 | 344 | 1.0 | 4.0 | 0.00 | 0.00 | 0.00 | 1 | 1014.2 |
| 20260502204503 | 57 | 14 | 1.0 | 4.0 | 0.00 | 0.00 | 0.00 | 1 | 1014.3 |
| 20260502203604 | 58 | 6 | 2.0 | 4.0 | 0.00 | 0.00 | 0.00 | 1 | 1014.5 |
| 20260502202703 | 58 | 344 | 2.0 | 4.0 | 0.00 | 0.00 | 0.00 | 1 | 1014.6 |
| 20260502201803 | 58 | 343 | 1.0 | 3.0 | 0.00 | 0.00 | 0.00 | 1 | 1014.6 |
| 20260502200903 | 59 | 342 | 1.0 | 3.0 | 0.00 | 0.00 | 0.00 | 4 | 1014.7 |
| 20260502200003 | 59 | 342 | 1.0 | 3.0 | 0.00 | 0.00 | 0.00 | 9 | 1014.9 |
| 20260502195403 | 59 | 340 | 1.0 | 4.0 | 0.00 | 0.00 | 0.00 | 12 | 1014.9 |
| 20260502194503 | 59 | 346 | 1.0 | 5.0 | 0.00 | 0.00 | 0.00 | 21 | 1014.8 |
| 20260502193603 | 60 | 13 | 1.0 | 4.0 | 0.00 | 0.00 | 0.00 | 30 | 1014.7 |
| 20260502192916 | 60 | 3 | 1.0 | 5.0 | 0.00 | 0.00 | 0.00 | 36 | 1014.7 |
| 20260502191803 | 60 | 341 | 1.0 | 4.0 | 0.00 | 0.00 | 0.00 | 47 | 1014.6 |
| 20260502190903 | 60 | 350 | 1.0 | 6.0 | 0.00 | 0.00 | 0.00 | 54 | 1014.6 |
| 20260502190004 | 61 | 353 | 1.0 | 6.0 | 0.00 | 0.00 | 0.00 | 61 | 1014.6 |
| 20260502185403 | 61 | 340 | 2.0 | 5.0 | 0.00 | 0.00 | 0.00 | 63 | 1014.7 |
| 20260502184503 | 61 | 348 | 1.0 | 5.0 | 0.00 | 0.00 | 0.00 | 65 | 1014.6 |
| 20260502183603 | 61 | 348 | 2.0 | 8.0 | 0.00 | 0.00 | 0.00 | 68 | 1014.7 |
| 20260502181803 | 62 | 334 | 1.0 | 7.0 | 0.00 | 0.00 | 0.00 | 68 | 1014.7 |
| 20260502180903 | 63 | 338 | 2.0 | 8.0 | 0.00 | 0.00 | 0.00 | 66 | 1014.8 |
| 20260502180218 | 63 | 326 | 2.0 | 8.0 | 0.00 | 0.00 | 0.00 | 65 | 1014.8 |
| 20260502163603 | 71 | 281 | 3.0 | 9.0 | 0.00 | 0.00 | 0.00 | 49 | 1015.4 |
| 20260502162917 | 72 | 291 | 3.0 | 9.0 | 0.00 | 0.00 | 0.00 | 50 | 1015.5 |
| 20260502161803 | 71 | 297 | 5.0 | 13.0 | 0.00 | 0.00 | 0.00 | 50 | 1015.4 |
| 20260502161122 | 71 | 283 | 5.0 | 11.0 | 0.00 | 0.00 | 0.00 | 50 | 1015.6 |
| 20260502152018 | 71 | 277 | 6.0 | 15.0 | 0.00 | 0.00 | 0.00 | 60 | 1016.0 |
| 20260502151118 | 71 | 286 | 5.0 | 10.0 | 0.00 | 0.00 | 0.00 | 62 | 1016.0 |
| 20260502122703 | 70 | 242 | 6.0 | 15.0 | 0.00 | 0.00 | 0.00 | 64 | 1017.2 |
| 20260502121803 | 71 | 249 | 8.0 | 13.0 | 0.00 | 0.00 | 0.00 | 62 | 1017.2 |
| 20260502120904 | 71 | 238 | 8.0 | 16.0 | 0.00 | 0.00 | 0.00 | 63 | 1017.3 |
| 20260502115403 | 72 | 255 | 5.0 | 13.0 | 0.00 | 0.00 | 0.00 | 61 | 1017.4 |
| 20260502114503 | 71 | 257 | 5.0 | 10.0 | 0.00 | 0.00 | 0.00 | 63 | 1017.5 |
| 20260502113818 | 71 | 264 | 6.0 | 15.0 | 0.00 | 0.00 | 0.00 | 62 | 1017.6 |
| 20260502112703 | 71 | 242 | 6.0 | 14.0 | 0.00 | 0.00 | 0.00 | 62 | 1017.7 |
| 20260502111803 | 71 | 255 | 5.0 | 14.0 | 0.00 | 0.00 | 0.00 | 60 | 1017.7 |
| 20260502111118 | 70 | 261 | 4.0 | 11.0 | 0.00 | 0.00 | 0.00 | 62 | 1017.8 |
| 20260502110004 | 70 | 253 | 4.0 | 9.0 | 0.00 | 0.00 | 0.00 | 61 | 1017.8 |
| 20260502105403 | 69 | 254 | 4.0 | 10.0 | 0.00 | 0.00 | 0.00 | 63 | 1017.8 |
| 20260502104503 | 68 | 251 | 5.0 | 11.0 | 0.00 | 0.00 | 0.00 | 64 | 1017.8 |
| 20260502103818 | 65 | 261 | 5.0 | 11.0 | 0.00 | 0.00 | 0.00 | 65 | 1017.9 |
| 20260502102703 | 64 | 249 | 2.0 | 8.0 | 0.00 | 0.00 | 0.00 | 65 | 1017.9 |
| 20260502101803 | 63 | 233 | 4.0 | 7.0 | 0.00 | 0.00 | 0.00 | 65 | 1017.7 |
| 20260502100903 | 63 | 232 | 3.0 | 5.0 | 0.00 | 0.00 | 0.00 | 64 | 1017.6 |
| 20260502090903 | 60 | 228 | 3.0 | 6.0 | 0.00 | 0.00 | 0.00 | 63 | 1018.1 |
| 20260502070903 | 63 | 182 | 3.0 | 7.0 | 0.00 | 0.00 | 0.00 | 55 | 1018.1 |
| 20260502070003 | 62 | 184 | 3.0 | 7.0 | 0.00 | 0.00 | 0.00 | 55 | 1018.1 |
| 20260502065403 | 62 | 184 | 3.0 | 7.0 | 0.00 | 0.00 | 0.00 | 57 | 1018.0 |
| 20260502064504 | 61 | 185 | 3.0 | 6.0 | 0.00 | 0.00 | 0.00 | 58 | 1018.0 |
| 20260502063603 | 60 | 184 | 3.0 | 6.0 | 0.00 | 0.00 | 0.00 | 59 | 1018.0 |
| 20260502062703 | 58 | 183 | 4.0 | 7.0 | 0.00 | 0.00 | 0.00 | 61 | 1018.0 |
| 20260502061803 | 57 | 184 | 3.0 | 7.0 | 0.00 | 0.00 | 0.00 | 62 | 1018.0 |
| 20260502060903 | 56 | 178 | 3.0 | 7.0 | 0.00 | 0.00 | 0.00 | 64 | 1018.0 |
| 20260502060003 | 55 | 164 | 4.0 | 7.0 | 0.00 | 0.00 | 0.00 | 66 | 1018.0 |
| 20260502055403 | 54 | 163 | 1.0 | 5.0 | 0.00 | 0.00 | 0.00 | 67 | 1018.0 |
| 20260502054503 | 52 | 163 | 1.0 | 5.0 | 0.00 | 0.00 | 0.00 | 68 | 1017.9 |
| 20260502053603 | 51 | 163 | 1.0 | 5.0 | 0.00 | 0.00 | 0.00 | 68 | 1017.8 |
| 20260502052703 | 51 | 163 | 1.0 | 4.0 | 0.00 | 0.00 | 0.00 | 68 | 1017.9 |
| 20260502051803 | 50 | 163 | 0.0 | 2.0 | 0.00 | 0.00 | 0.00 | 68 | 1018.0 |
| 20260502050903 | 50 | 163 | 1.0 | 4.0 | 0.00 | 0.00 | 0.00 | 68 | 1018.0 |
| 20260502050003 | 50 | 163 | 2.0 | 5.0 | 0.00 | 0.00 | 0.00 | 68 | 1018.0 |
| 20260502045403 | 50 | 163 | 2.0 | 6.0 | 0.00 | 0.00 | 0.00 | 68 | 1018.0 |
| 20260502044504 | 50 | 163 | 2.0 | 6.0 | 0.00 | 0.00 | 0.00 | 68 | 1018.0 |
| 20260502043603 | 50 | 163 | 2.0 | 4.0 | 0.00 | 0.00 | 0.00 | 68 | 1017.9 |
| 20260502042703 | 50 | 163 | 2.0 | 4.0 | 0.00 | 0.00 | 0.00 | 67 | 1017.9 |
| 20260502041803 | 51 | 163 | 3.0 | 5.0 | 0.00 | 0.00 | 0.00 | 67 | 1018.1 |
| 20260502040903 | 51 | 163 | 2.0 | 5.0 | 0.00 | 0.00 | 0.00 | 66 | 1018.1 |
| 20260502040004 | 51 | 163 | 2.0 | 5.0 | 0.00 | 0.00 | 0.00 | 65 | 1018.2 |
| 20260502035616 | 51 | 163 | 2.0 | 5.0 | 0.00 | 0.00 | 0.00 | 65 | 1018.1 |
| 20260502034503 | 52 | 163 | 2.0 | 5.0 | 0.00 | 0.00 | 0.00 | 65 | 1018.2 |
| 20260502033603 | 52 | 163 | 2.0 | 5.0 | 0.00 | 0.00 | 0.00 | 65 | 1018.3 |
| 20260502032703 | 52 | 165 | 3.0 | 7.0 | 0.00 | 0.00 | 0.00 | 65 | 1018.3 |
| 20260502031803 | 52 | 166 | 4.0 | 7.0 | 0.00 | 0.00 | 0.00 | 65 | 1018.4 |
| 20260502031117 | 52 | 166 | 3.0 | 6.0 | 0.00 | 0.00 | 0.00 | 65 | 1018.4 |
| 20260502030003 | 52 | 167 | 3.0 | 6.0 | 0.00 | 0.00 | 0.00 | 64 | 1018.5 |
| 20260502025618 | 52 | 167 | 2.0 | 6.0 | 0.00 | 0.00 | 0.00 | 64 | 1018.5 |
| 20260502024717 | 53 | 167 | 3.0 | 5.0 | 0.00 | 0.00 | 0.00 | 64 | 1018.5 |
| 20260502023603 | 53 | 168 | 2.0 | 5.0 | 0.00 | 0.00 | 0.00 | 63 | 1018.6 |
| 20260502022703 | 53 | 169 | 2.0 | 6.0 | 0.00 | 0.00 | 0.00 | 63 | 1018.6 |
| 20260502021803 | 53 | 169 | 1.0 | 5.0 | 0.00 | 0.00 | 0.00 | 63 | 1018.7 |
| 20260502020903 | 53 | 169 | 1.0 | 4.0 | 0.00 | 0.00 | 0.00 | 62 | 1018.7 |
| 20260502020218 | 54 | 169 | 1.0 | 5.0 | 0.00 | 0.00 | 0.00 | 62 | 1018.8 |
| 20260502015403 | 54 | 170 | 2.0 | 6.0 | 0.00 | 0.00 | 0.00 | 61 | 1018.8 |
| 20260502014503 | 54 | 172 | 2.0 | 5.0 | 0.00 | 0.00 | 0.00 | 61 | 1018.8 |
| 20260502013603 | 54 | 178 | 1.0 | 3.0 | 0.00 | 0.00 | 0.00 | 61 | 1018.9 |
| 20260502012703 | 54 | 178 | 1.0 | 3.0 | 0.00 | 0.00 | 0.00 | 61 | 1019.0 |
| 20260502012017 | 54 | 178 | 1.0 | 3.0 | 0.00 | 0.00 | 0.00 | 61 | 1019.1 |
| 20260502010903 | 54 | 178 | 1.0 | 3.0 | 0.00 | 0.00 | 0.00 | 61 | 1019.2 |
| 20260502010004 | 54 | 178 | 1.0 | 3.0 | 0.00 | 0.00 | 0.00 | 61 | 1019.4 |
| 20260502005403 | 54 | 178 | 1.0 | 2.0 | 0.00 | 0.00 | 0.00 | 60 | 1019.5 |
| 20260502004503 | 54 | 178 | 1.0 | 3.0 | 0.00 | 0.00 | 0.00 | 60 | 1019.6 |
| 20260502003818 | 54 | 178 | 1.0 | 3.0 | 0.00 | 0.00 | 0.00 | 60 | 1019.7 |
| 20260502002703 | 54 | 178 | 1.0 | 3.0 | 0.00 | 0.00 | 0.00 | 60 | 1019.7 |
| 20260502002017 | 54 | 178 | 1.0 | 3.0 | 0.00 | 0.00 | 0.00 | 61 | 1019.8 |
| 20260502001118 | 54 | 178 | 1.0 | 3.0 | 0.00 | 0.00 | 0.00 | 61 | 1019.9 |
| 20260502000003 | 54 | 178 | 1.0 | 2.0 | 0.00 | 0.00 | 0.00 | 60 | 1019.9 |
| 20260501235403 | 54 | 178 | 1.0 | 2.0 | 0.00 | 0.00 | 0.00 | 60 | 1020.0 |
| 20260501234503 | 54 | 178 | 1.0 | 2.0 | 0.00 | 0.00 | 0.00 | 60 | 1020.1 |
| 20260501233603 | 54 | 178 | 0.0 | 2.0 | 0.00 | 0.00 | 0.00 | 59 | 1020.1 |
| 20260501232703 | 55 | 178 | 1.0 | 2.0 | 0.00 | 0.00 | 0.00 | 59 | 1020.2 |